Location: Unspecified
(35.7250°N, 0.0000°E)
Time: 22:16:00
(UTC+00:00)

Courier 1B Rocket - Pass Details

Date: 21 June 2019
Orbit: 920 x 1202 km, 28.2° (Epoch: 12 October)

Event Time Altitude Azimuth Distance (km) Brightness Sun altitude
Exits shadow 02:58:55 16° 180° (S) 2,461 6.7 -17.5°
Maximum altitude 03:01:15 18° 156° (SSE) 2,268 6.7 -17.2°
Drops below altitude 10° 03:05:35 10° 115° (ESE) 2,752 7.6 -16.6°
Sets 03:09:03 0° 97° (E) 3,654 8.6 -16.1°
